Weather in Gurdaspur

India     32°02′17″N   75°24′19″E
temp.,
°C
wind,
m/s
gust,
m/s
humid.,
%
clouds,
%
prec.,
mm/h
press.,
hPa
HPBL,
m
21 january, fri
fri2123:30+10ese11918 0.1 101310
02:30+9ese009233 0.1 101310
05:30+10nne119393 0.1 101216
08:30+12n129099 0.0 101472
11:30+15nnw117566 0.0 1015447
14:30+17sw226761 0.0 1012851
17:30+14s22825 0.4 101124
20:30+11e22864 0.0 101212
22 january, sat
sat2223:30+11e348663 0.2 101159
02:30+11sse2284100 0.0 101019
05:30+11sse2284100 0.4 100927
08:30+12se128399 0.2 1010102
11:30+12se3786100 1.1 1010595
14:30+11e2695100 8.8 1008398
17:30+11nne3594100 10.3 1007140
20:30+11ene4788100 0.1 1009151
23 january, sun
sun2323:30+11e2390100 1.2 100980
02:30+11ne4694100 7.5 1009169
05:30+12se71589100 9.5 1008731
08:30+11ene3697100 5.7 1011246
11:30+11ne3494100 11.5 1012192
14:30+12ene3690100 3.5 1011420
17:30+12e3894100 5.3 1011397
20:30+10ne4796100 10.8 1013220
24 january, mon
mon2423:30+10ne3694100 13.3 1013184
02:30+11e239597 0.2 101360
05:30+11ene2392100 0.7 101368
08:30+11ene239299 0.6 101574
11:30+14ene348270 1.3 1016358
14:30+14e238250 2.1 1014342
17:30+13ene22854 4.0 101320
20:30+10nne11841 0.0 101510
25 january, tue
tue2523:30+9n228519 0.0 101611
02:30+10nnw228598 0.0 101538
05:30+10nw228650 0.0 101429
08:30+10wnw11875 0.0 101535
11:30+15wsw11705 0.0 1016519
14:30+17w22668 0.6 1013787
17:30+14wnw34812 0.9 101252
20:30+10nw22850 0.3 101515